| time (UTC) | temp F | wind direction | speed knots | gust knots | rain 1hr in | rain 24hr in | rain mn in | humidity % | barometer mb |
| 20260508070058 | 40 | 0 | 0.0 | 0.0 | 0.00 | 0.00 | 0.00 | 69 | 1006.7 |
| 20260508064556 | 40 | 0 | 0.0 | 0.0 | 0.00 | 0.00 | 0.00 | 70 | 1006.8 |
| 20260508063100 | 40 | 0 | 0.0 | 0.9 | 0.00 | 0.00 | 0.00 | 66 | 1006.8 |
| 20260508061557 | 41 | 0 | 0.0 | 0.0 | 0.00 | 0.00 | 0.00 | 65 | 1007.0 |
| 20260508060112 | 41 | 0 | 0.0 | 0.0 | 0.00 | 0.00 | 0.00 | 65 | 1007.0 |
| 20260508054636 | 41 | 0 | 0.0 | 0.9 | 0.00 | 0.01 | 0.00 | 64 | 1007.2 |
| 20260508053052 | 42 | 0 | 0.0 | 0.0 | 0.00 | 0.01 | 0.00 | 61 | 1007.4 |
| 20260508051555 | 42 | 0 | 0.0 | 0.0 | 0.00 | 0.01 | 0.00 | 60 | 1007.5 |
| 20260508050057 | 43 | 0 | 0.0 | 0.0 | 0.00 | 0.01 | 0.00 | 59 | 1007.6 |
| 20260508044552 | 44 | 178 | 0.0 | 0.9 | 0.00 | 0.16 | 0.00 | 58 | 1007.6 |
| 20260508043058 | 44 | 0 | 0.0 | 0.9 | 0.00 | 0.16 | 0.00 | 58 | 1007.6 |
| 20260508041553 | 44 | 0 | 0.0 | 0.0 | 0.00 | 0.16 | 0.00 | 56 | 1007.8 |
| 20260508040056 | 45 | 0 | 0.0 | 0.0 | 0.00 | 0.16 | 0.00 | 56 | 1007.7 |
| 20260508034556 | 45 | 0 | 0.0 | 0.9 | 0.00 | 0.18 | 0.16 | 54 | 1007.8 |
| 20260508033053 | 46 | 0 | 0.0 | 0.0 | 0.00 | 0.18 | 0.16 | 52 | 1007.8 |
| 20260508031601 | 46 | 0 | 0.0 | 1.7 | 0.00 | 0.18 | 0.16 | 52 | 1007.8 |
| 20260508030104 | 46 | 0 | 0.0 | 0.9 | 0.00 | 0.18 | 0.16 | 53 | 1007.7 |
| 20260508024604 | 46 | 0 | 0.0 | 1.7 | 0.00 | 0.20 | 0.16 | 51 | 1007.5 |
| 20260508023052 | 46 | 0 | 0.0 | 0.9 | 0.00 | 0.20 | 0.16 | 50 | 1007.7 |
| 20260508021558 | 47 | 0 | 0.0 | 2.6 | 0.00 | 0.20 | 0.16 | 51 | 1007.6 |
| 20260508020104 | 46 | 178 | 0.0 | 5.2 | 0.00 | 0.20 | 0.16 | 52 | 1007.3 |
| 20260508014553 | 46 | 0 | 0.0 | 0.0 | 0.00 | 0.26 | 0.16 | 55 | 1007.5 |
| 20260508013053 | 47 | 0 | 0.0 | 0.0 | 0.00 | 0.26 | 0.16 | 55 | 1007.6 |
| 20260508011554 | 47 | 0 | 0.0 | 0.0 | 0.00 | 0.26 | 0.16 | 53 | 1007.5 |
| 20260508010053 | 48 | 0 | 0.0 | 0.0 | 0.00 | 0.26 | 0.16 | 54 | 1007.3 |
| 20260508004553 | 49 | 0 | 0.0 | 0.0 | 0.00 | 0.26 | 0.16 | 53 | 1007.1 |
| 20260508003053 | 50 | 0 | 0.0 | 1.7 | 0.00 | 0.26 | 0.16 | 51 | 1006.8 |
| 20260508001553 | 51 | 0 | 0.0 | 1.7 | 0.00 | 0.26 | 0.16 | 49 | 1006.7 |
| 20260508000051 | 52 | 0 | 0.0 | 4.3 | 0.00 | 0.26 | 0.16 | 46 | 1006.4 |
| 20260507234556 | 53 | 0 | 0.9 | 2.6 | 0.00 | 0.26 | 0.16 | 43 | 1006.1 |
| 20260507233052 | 54 | 0 | 0.0 | 2.6 | 0.00 | 0.26 | 0.16 | 42 | 1005.9 |
| 20260507231553 | 54 | 0 | 0.9 | 6.1 | 0.00 | 0.26 | 0.16 | 42 | 1005.6 |
| 20260507230054 | 55 | 0 | 0.0 | 1.7 | 0.00 | 0.26 | 0.16 | 42 | 1005.3 |
| 20260507224553 | 56 | 178 | 0.9 | 6.1 | 0.00 | 0.28 | 0.16 | 41 | 1005.1 |
| 20260507223056 | 57 | 178 | 0.0 | 4.3 | 0.00 | 0.28 | 0.16 | 39 | 1004.8 |
| 20260507221554 | 58 | 0 | 0.9 | 6.1 | 0.00 | 0.28 | 0.16 | 37 | 1004.6 |
| 20260507220055 | 58 | 0 | 0.0 | 5.2 | 0.00 | 0.28 | 0.16 | 41 | 1004.5 |
| 20260507214551 | 57 | 178 | 0.9 | 4.3 | 0.00 | 0.32 | 0.16 | 39 | 1004.4 |
| 20260507213053 | 59 | 178 | 0.9 | 2.6 | 0.00 | 0.32 | 0.16 | 39 | 1004.3 |
| 20260507211555 | 60 | 178 | 0.9 | 5.2 | 0.00 | 0.32 | 0.16 | 38 | 1004.2 |
| 20260507210101 | 61 | 178 | 0.9 | 5.2 | 0.00 | 0.32 | 0.16 | 37 | 1003.9 |
| 20260507204555 | 62 | 178 | 0.9 | 4.3 | 0.00 | 0.41 | 0.16 | 35 | 1003.8 |
| 20260507203058 | 64 | 0 | 0.9 | 6.1 | 0.00 | 0.41 | 0.16 | 38 | 1003.7 |
| 20260507201552 | 63 | 178 | 0.9 | 5.2 | 0.00 | 0.41 | 0.16 | 37 | 1003.7 |
| 20260507200053 | 63 | 178 | 0.0 | 5.2 | 0.00 | 0.41 | 0.16 | 40 | 1003.7 |
| 20260507194552 | 63 | 178 | 0.9 | 5.2 | 0.00 | 0.64 | 0.16 | 45 | 1003.9 |
| 20260507193049 | 62 | 178 | 1.7 | 6.1 | 0.00 | 0.64 | 0.16 | 48 | 1003.8 |
| 20260507191553 | 62 | 0 | 0.9 | 4.3 | 0.00 | 0.64 | 0.16 | 51 | 1003.8 |
| 20260507190052 | 64 | 178 | 1.7 | 6.1 | 0.00 | 0.64 | 0.16 | 47 | 1003.8 |
| 20260507184552 | 63 | 178 | 0.0 | 4.3 | 0.00 | 0.71 | 0.16 | 49 | 1003.7 |
| 20260507183051 | 64 | 178 | 0.9 | 5.2 | 0.00 | 0.71 | 0.16 | 45 | 1003.8 |
| 20260507181555 | 64 | 178 | 1.7 | 6.1 | 0.00 | 0.71 | 0.16 | 48 | 1003.8 |
| 20260507180100 | 62 | 178 | 0.0 | 6.1 | 0.00 | 0.71 | 0.16 | 49 | 1004.1 |
| 20260507174607 | 63 | 178 | 0.9 | 5.2 | 0.00 | 0.71 | 0.16 | 49 | 1004.3 |
| 20260507173054 | 63 | 178 | 0.0 | 5.2 | 0.00 | 0.71 | 0.16 | 49 | 1004.4 |
| 20260507171605 | 62 | 178 | 0.0 | 2.6 | 0.00 | 0.71 | 0.16 | 52 | 1004.6 |
| 20260507170053 | 61 | 178 | 0.0 | 2.6 | 0.00 | 0.71 | 0.16 | 52 | 1004.8 |
| 20260507164552 | 62 | 178 | 0.0 | 2.6 | 0.00 | 0.71 | 0.16 | 49 | 1004.7 |
| 20260507163100 | 63 | 178 | 0.9 | 2.6 | 0.00 | 0.71 | 0.16 | 51 | 1004.9 |
| 20260507161600 | 61 | 0 | 0.0 | 1.7 | 0.00 | 0.71 | 0.16 | 58 | 1005.1 |
| 20260507160055 | 62 | 178 | 0.0 | 1.7 | 0.00 | 0.71 | 0.16 | 55 | 1005.4 |
| 20260507154556 | 62 | 178 | 0.0 | 4.3 | 0.00 | 0.71 | 0.16 | 56 | 1005.6 |
| 20260507153102 | 62 | 178 | 0.0 | 4.3 | 0.00 | 0.71 | 0.16 | 57 | 1005.7 |
| 20260507151555 | 62 | 178 | 0.0 | 2.6 | 0.00 | 0.71 | 0.16 | 58 | 1005.7 |
| 20260507150057 | 61 | 178 | 1.7 | 4.3 | 0.00 | 0.71 | 0.16 | 60 | 1005.9 |
| 20260507144554 | 59 | 0 | 0.9 | 4.3 | 0.00 | 0.71 | 0.16 | 60 | 1006.0 |
| 20260507143054 | 59 | 178 | 0.9 | 4.3 | 0.00 | 0.71 | 0.16 | 61 | 1006.2 |
| 20260507141552 | 59 | 178 | 0.9 | 5.2 | 0.00 | 0.71 | 0.16 | 65 | 1006.3 |
| 20260507140106 | 59 | 178 | 0.9 | 2.6 | 0.00 | 0.71 | 0.16 | 64 | 1006.5 |
| 20260507134557 | 59 | 178 | 0.0 | 2.6 | 0.00 | 0.71 | 0.16 | 64 | 1006.6 |
| 20260507133104 | 57 | 178 | 0.9 | 2.6 | 0.00 | 0.71 | 0.16 | 68 | 1006.5 |
| 20260507131553 | 57 | 0 | 0.0 | 4.3 | 0.00 | 0.71 | 0.16 | 71 | 1006.5 |
| 20260507130105 | 57 | 178 | 0.0 | 1.7 | 0.00 | 0.71 | 0.16 | 71 | 1006.6 |
| 20260507124629 | 55 | 0 | 0.9 | 1.7 | 0.00 | 0.71 | 0.16 | 73 | 1006.8 |
| 20260507123050 | 55 | 0 | 0.0 | 2.6 | 0.00 | 0.71 | 0.16 | 74 | 1006.7 |
| 20260507121554 | 54 | 178 | 0.0 | 1.7 | 0.00 | 0.71 | 0.16 | 77 | 1006.8 |
| 20260507120052 | 52 | 178 | 0.9 | 1.7 | 0.00 | 0.71 | 0.16 | 78 | 1006.9 |
| 20260507114609 | 52 | 0 | 0.0 | 0.9 | 0.00 | 0.71 | 0.16 | 82 | 1007.0 |
| 20260507113056 | 49 | 178 | 0.0 | 0.9 | 0.00 | 0.71 | 0.16 | 86 | 1006.9 |
| 20260507111555 | 47 | 0 | 0.0 | 0.9 | 0.00 | 0.71 | 0.16 | 90 | 1006.9 |
| 20260507110054 | 47 | 0 | 0.0 | 0.0 | 0.00 | 0.71 | 0.16 | 93 | 1007.0 |
| 20260507104555 | 46 | 0 | 0.0 | 0.9 | 0.00 | 0.71 | 0.16 | 93 | 1007.3 |
| 20260507103054 | 45 | 0 | 0.0 | 0.9 | 0.00 | 0.71 | 0.16 | 94 | 1006.9 |
| 20260507101557 | 45 | 0 | 0.0 | 0.0 | 0.00 | 0.71 | 0.16 | 95 | 1007.1 |
| 20260507100056 | 45 | 0 | 0.0 | 0.0 | 0.00 | 0.71 | 0.16 | 95 | 1006.4 |
| 20260507094557 | 45 | 0 | 0.0 | 0.0 | 0.00 | 0.71 | 0.16 | 94 | 1006.1 |
| 20260507093052 | 45 | 0 | 0.0 | 0.0 | 0.00 | 0.71 | 0.16 | 95 | 1006.5 |
| 20260507091600 | 45 | 0 | 0.0 | 0.0 | 0.00 | 0.71 | 0.16 | 95 | 1006.5 |
| 20260507090051 | 46 | 0 | 0.0 | 0.0 | 0.00 | 0.71 | 0.16 | 95 | 1006.6 |
| 20260507084600 | 46 | 0 | 0.0 | 0.0 | 0.00 | 0.71 | 0.16 | 95 | 1006.6 |
| 20260507083056 | 47 | 0 | 0.0 | 0.0 | 0.00 | 0.71 | 0.16 | 95 | 1006.2 |
| 20260507081555 | 47 | 0 | 0.0 | 0.0 | 0.00 | 0.71 | 0.16 | 95 | 1006.2 |
| 20260507080051 | 48 | 0 | 0.0 | 0.9 | 0.00 | 0.71 | 0.16 | 95 | 1006.0 |
| 20260507074606 | 48 | 0 | 0.0 | 0.0 | 0.00 | 0.71 | 0.16 | 96 | 1006.2 |
| 20260507073054 | 48 | 0 | 0.0 | 0.0 | 0.00 | 0.71 | 0.16 | 95 | 1006.3 |